GFSFLT1_925_temp_231.txt.gz
Temp
23 22 22 22 21 21 20 20 20 21 22 22 22 21 21 23 22 22 22 22 23 24 25 25 25 25 25 25 25 25 24 25 24
22 22 22 21 21 21 20 20 20 20 20 20 20 20 20 21 21 21 21 21 23 23 23 23 23 24 25 24 25 25 25 25 25
22 22 21 20 20 21 21 21 22 22 21 21 21 21 21 21 21 21 21 22 22 22 22 24 24 25 25 24 24 24 25 25 25
21 21 20 20 20 21 21 21 21 21 21 21 21 21 21 21 21 21 21 21 21 21 21 22 22 22 24 24 24 24 24 25 24
21 21 19 19 20 20 21 21 21 20 20 20 19 19 20 20 20 20 20 20 21 21 21 21 21 21 22 23 24 24 22 23 24
21 20 19 18 18 18 19 19 19 19 19 19 19 19 19 19 18 18 18 19 19 20 20 20 20 21 21 21 21 21 21 22 22
20 20 19 17 17 17 18 18 18 18 18 17 17 17 17 17 16 16 16 17 17 18 18 19 19 20 20 20 21 21 21 21 22
20 19 18 18 17 16 18 18 18 17 17 17 16 16 16 15 15 15 15 16 16 17 17 17 18 18 19 19 20 20 20 21 21
20 19 19 18 17 17 17 17 17 16 16 16 15 15 14 14 14 14 15 15 15 15 16 16 17 18 18 18 19 19 20 20 20
20 19 18 17 17 16 16 16 16 15 15 15 14 14 13 13 13 13 13 13 13 14 14 14 15 16 17 18 18 19 19 19 19
19 18 17 16 16 15 15 15 15 15 14 14 13 13 13 13 13 13 12 12 12 12 13 13 14 15 16 16 18 18 19 19 19
18 17 17 17 16 15 15 15 14 14 14 13 13 12 12 12 13 13 12 11 11 12 12 13 13 14 15 15 17 17 18 19 19
17 17 16 15 15 14 14 13 13 13 12 12 11 11 11 12 13 13 12 12 12 12 13 13 13 14 14 15 16 17 18 18 18
17 16 16 15 15 14 13 13 13 12 11 11 11 11 11 11 13 12 12 12 12 12 13 13 13 13 14 15 16 17 18 18 19
15 14 14 14 14 13 13 13 12 12 12 11 10 11 12 12 12 12 11 11 12 13 13 13 13 13 14 16 16 16 17 18 19
14 14 14 14 14 13 13 13 12 12 12 11 11 11 12 12 12 12 12 12 13 12 13 13 14 14 14 14 16 17 17 18 19
13 14 14 14 14 13 13 12 12 12 12 12 11 11 11 11 11 11 12 12 12 12 11 12 11 11 12 12 13 14 16 17 17
14 14 14 14 14 13 13 12 12 12 11 12 11 11 11 11 11 11 11 12 11 11 10 11 10 9 10 10 10 11 12 14 16
14 14 14 14 13 13 13 13 12 12 11 12 12 12 11 11 11 10 11 11 11 11 11 11 10 9 9 10 10 12 12 14 15
15 14 14 14 14 14 13 13 12 12 11 11 12 11 11 11 11 10 10 10 10 10 11 10 10 9 9 9 8 11 12 13 13

GFSFLT1_925_temp_234.txt.gz
Temp
22 21 21 21 20 20 20 19 20 21 21 22 22 23 24 23 20 21 22 21 21 21 22 22 23 24 23 23 24 25 25 24 24
22 22 21 20 20 19 19 20 20 20 21 20 20 20 21 21 21 21 20 20 20 21 21 22 22 23 23 24 23 23 24 24 24
21 20 20 19 19 19 20 20 21 21 21 20 20 20 20 20 19 19 20 20 20 20 20 21 21 20 21 23 24 24 23 23 24
20 20 20 19 19 19 20 20 20 20 20 20 20 19 19 19 19 19 19 19 19 20 20 20 21 21 21 21 23 22 23 23 23
20 20 19 18 18 18 18 19 19 19 19 19 18 19 19 19 18 18 19 19 18 18 19 20 20 20 20 20 21 21 21 21 22
20 19 18 17 17 17 18 18 18 18 18 18 17 17 17 17 17 16 16 17 17 18 18 18 19 19 19 20 20 20 20 20 21
19 19 18 17 16 17 17 17 17 17 16 17 16 16 16 15 15 15 15 15 15 16 16 17 17 18 18 18 19 20 20 20 20
19 18 17 17 16 16 16 16 16 16 16 16 16 15 14 14 14 14 14 14 14 15 15 15 16 17 18 18 18 18 19 19 19
19 18 18 17 16 16 16 15 15 15 15 14 14 14 13 13 13 13 13 13 13 13 14 14 15 16 16 17 18 18 18 18 18
20 19 18 17 16 16 15 15 15 14 14 13 13 13 13 13 13 13 12 12 12 12 12 13 14 15 15 16 17 17 18 18 18
19 18 17 16 15 15 15 15 15 14 14 13 13 12 12 12 13 13 12 12 12 12 12 12 13 14 14 14 16 16 17 18 18
18 17 16 16 16 15 14 14 14 13 13 12 12 11 11 12 12 13 13 12 12 12 12 12 12 13 14 14 15 15 16 17 18
16 17 16 15 15 14 14 13 13 13 12 11 10 10 11 11 12 13 13 12 12 12 12 13 13 12 13 13 14 15 15 16 17
15 15 15 15 15 14 13 12 12 12 11 11 10 11 11 12 12 12 12 12 12 12 13 14 14 14 14 13 14 15 15 15 16
14 13 14 14 13 13 12 12 12 11 11 11 11 11 12 13 12 12 12 12 12 12 12 12 13 13 14 13 13 13 14 16 16
13 13 13 13 13 12 12 12 12 12 12 12 12 12 12 12 12 12 12 11 12 12 12 11 11 11 11 11 12 12 14 16 16
12 13 13 13 13 13 12 12 12 12 11 12 12 12 12 11 11 11 11 11 11 11 10 10 9 9 9 10 11 11 12 13 16
13 13 13 13 13 13 13 12 12 12 11 11 12 12 12 11 11 10 11 11 11 11 9 9 9 8 9 8 8 9 12 12 13
13 13 13 13 13 13 13 13 12 12 11 11 11 11 11 11 11 10 10 10 10 10 10 9 9 8 8 8 8 10 12 12 12
14 14 14 13 14 14 13 13 12 12 12 11 11 11 11 11 11 11 10 9 9 9 10 9 9 8 8 8 8 9 11 12 11

GFSFLT1_925_temp_237.txt.gz
Temp
24 25 25 24 23 22 21 21 22 21 21 21 21 21 20 21 20 20 20 20 20 20 20 20 22 21 21 21 22 22 24 23 24
24 24 24 23 22 21 22 21 20 20 20 20 20 20 19 18 19 20 20 20 20 19 20 21 21 20 21 22 22 22 21 22 22
23 25 24 23 23 22 21 21 20 20 19 19 20 19 19 19 19 20 20 20 20 20 20 20 21 21 20 21 22 20 20 21 22
24 24 24 23 22 21 21 20 20 20 20 19 19 19 19 19 18 18 18 18 18 19 18 18 18 19 19 19 20 20 20 20 21
24 24 23 23 22 21 21 20 20 19 19 19 18 17 17 17 17 16 16 16 16 17 17 17 17 17 18 19 19 19 20 20 20
24 24 23 23 21 21 20 19 19 18 18 17 17 16 17 16 16 15 15 15 15 15 15 16 16 16 16 17 18 19 19 20 20
25 24 23 23 22 20 19 18 17 17 16 16 16 15 15 15 15 14 14 14 14 14 14 14 15 15 16 16 17 18 19 19 19
24 24 23 22 22 20 19 18 17 16 16 15 15 15 15 14 13 13 13 13 13 13 13 14 14 14 15 16 16 19 17 17 18
24 23 23 22 21 20 19 18 17 16 15 14 14 14 14 13 13 13 13 13 13 13 13 13 13 14 14 15 16 17 17 17 17
25 24 23 22 21 20 18 17 16 16 14 13 13 13 13 13 13 13 13 12 12 12 13 13 13 13 14 14 14 15 16 17 16
25 24 22 21 19 18 16 15 15 14 13 13 13 13 12 12 12 13 13 13 12 13 13 13 13 12 13 13 13 14 15 15 15
25 23 22 20 19 17 15 14 14 13 13 12 12 12 12 12 12 13 13 13 12 13 13 13 13 13 14 14 13 14 14 14 15
23 21 20 18 17 16 15 14 13 13 13 13 12 11 12 12 12 12 12 12 12 12 12 13 13 13 13 14 14 14 14 14 14
21 20 18 17 16 16 15 14 13 13 13 13 12 12 12 13 12 12 12 12 13 12 13 13 13 13 13 13 13 13 13 13 14
20 18 17 17 16 16 14 13 13 13 13 12 12 12 12 13 12 12 12 12 12 13 12 12 13 11 12 12 12 12 12 14 14
19 18 17 17 17 15 13 12 12 13 12 12 12 13 13 12 12 12 12 12 12 11 11 13 12 11 11 11 11 11 12 13 14
18 17 17 16 15 15 14 13 12 12 12 12 12 13 13 12 12 12 12 12 11 10 10 12 11 10 10 10 11 11 10 12 13
18 17 16 15 15 15 14 13 12 12 11 11 12 13 13 12 13 12 12 12 11 10 9 9 10 9 10 9 10 9 9 10 12
17 16 15 15 14 14 14 13 13 12 11 11 12 13 13 13 13 13 12 12 12 10 10 9 9 8 8 8 7 8 9 10 11
16 16 15 15 15 14 13 13 13 12 11 11 12 12 12 13 13 13 12 12 12 13 12 10 9 8 8 8 7 8 9 9 9

GFSFLT1_925_temp_240.txt.gz
Temp
29 29 30 29 28 28 27 27 26 25 25 24 24 22 22 22 23 24 24 23 22 23 23 23 22 22 22 23 22 23 23 22 23
29 29 29 28 26 26 25 25 24 23 23 23 22 22 21 21 20 21 21 21 21 21 21 21 21 22 21 22 22 22 22 23 24
30 29 28 28 27 27 26 25 24 23 23 22 22 21 21 21 20 20 20 21 20 20 20 20 20 21 21 21 22 22 22 22 23
30 29 28 28 26 26 25 25 25 24 23 22 22 21 20 20 20 20 20 20 19 19 19 19 20 20 20 21 21 21 21 21 21
30 28 28 27 26 26 25 25 25 23 23 23 21 20 20 20 19 19 20 19 19 18 18 18 19 19 19 19 20 21 20 21 22
29 28 28 27 26 25 25 24 23 23 22 20 21 20 20 19 19 19 18 18 17 17 17 17 18 18 18 18 19 20 20 21 21
29 28 27 27 26 25 23 22 21 20 20 19 19 19 19 18 18 17 17 17 16 16 16 16 17 17 18 18 18 19 20 20 20
29 28 27 27 27 24 23 21 21 20 20 19 18 18 19 18 16 16 16 16 16 16 16 16 16 17 17 17 18 20 18 18 18
29 28 28 27 26 24 23 22 21 20 19 18 18 17 17 16 16 16 16 16 15 15 16 16 16 17 17 17 18 18 16 15 17
30 29 28 26 25 24 23 22 20 20 19 17 17 16 16 16 16 16 15 14 14 14 15 16 16 16 16 15 15 15 14 14 15
30 29 28 26 25 23 22 21 20 18 18 17 16 16 16 16 15 15 14 14 14 14 14 14 14 15 15 15 15 14 14 14 15
30 29 27 25 24 22 20 19 18 17 17 16 16 16 15 14 14 14 14 14 15 15 15 15 15 15 16 15 15 14 14 15 15
30 28 26 24 23 21 20 19 18 17 17 17 16 15 13 14 14 14 15 15 15 15 14 16 16 15 14 13 13 13 13 13 16
28 26 24 23 22 21 20 18 18 18 17 17 15 14 13 13 14 15 15 15 15 14 14 15 15 15 15 14 13 13 12 12 13
26 24 22 22 21 20 19 18 17 18 17 16 15 14 14 14 14 15 15 15 15 13 14 16 16 16 16 16 14 14 13 13 12
24 23 22 22 21 19 18 17 17 18 16 15 15 15 15 14 14 14 14 14 14 13 15 16 17 17 16 16 16 16 13 13 13
24 23 22 22 21 20 18 17 16 16 15 15 15 15 15 15 15 14 15 16 15 13 14 16 16 16 16 16 16 15 12 11 13
23 22 21 21 20 19 19 17 16 16 15 15 15 15 16 16 17 16 15 16 15 13 10 11 12 13 13 14 14 11 8 9 9
22 21 20 20 19 19 18 16 16 15 15 15 15 16 17 17 17 17 16 16 16 13 12 11 10 9 9 11 10 8 9 8 9
21 20 20 19 19 18 17 16 16 16 15 15 15 16 16 17 16 17 17 16 16 17 11 11 10 10 9 9 9 8 10 10 9